Regional Weather Roundup
Issued by NWS

Home | Current Version | Previous Version | Graphics & Text | Print | Product List | Glossary On
Versions: 1 2 3 4 5 6 7 8 9 10 11 12 13 14 15 16 17 18 19 20 21 22 23 24 25 26 27 28 29 30 31 32 33 34 35 36 37 38 39 40 41 42 43 44 45 46 47 48 49 50
000
ASUS43 KLMK 040302
RWRKY
KENTUCKY REGIONAL WEATHER ROUNDUP
NATIONAL WEATHER SERVICE LOUISVILLE KY
1100 PM EDT TUE MAY 03 2016

NOTE "FAIR" INDICATES FEW OR NO CLOUDS BELOW 12,000 FEET
WITH NO SIGNIFICANT WEATHER AND/OR OBSTRUCTIONS TO VISIBILITY.

KYZ001>023-026-027-061>063-070>075-040400-
WESTERN AND SOUTH CENTRAL KENTUCKY

CITY           SKY/WX    TMP DP  RH WIND       PRES   REMARKS
PADUCAH        CLOUDY    55  47  74 W3        29.94S
HENDERSON      CLEAR     54  46  76 W3        29.92S
OWENSBORO      MOCLDY    55  48  77 CALM      29.92S
HOPKINSVILLE   CLEAR     56  47  71 W5        29.94R
BOWLING GREEN  CLEAR     55  46  71 CALM      29.93R
GLASGOW        NOT AVBL
$$

KYZ024-025-028>034-038-045-046-053-040400-
NORTH CENTRAL KENTUCKY

CITY           SKY/WX    TMP DP  RH WIND       PRES   REMARKS
LOUISVILLE/SDF PTCLDY    55  45  68 W6        29.89F
LOUISVILLE/LOU PTCLDY    55  45  68 W5        29.90S
FORT KNOX      PTCLDY    53  47  83 SW1       29.89S
$$

KYZ035>037-039>044-047>052-055>060-089>105-040400-
NORTHEAST KENTUCKY

CITY           SKY/WX    TMP DP  RH WIND       PRES   REMARKS
LEXINGTON      CLOUDY    54  48  80 NW5       29.89F
COVINGTON      PTCLDY    52  50  93 SW5       29.87S
FRANKFORT      CLOUDY    54  48  80 W3        29.88F
$$

KYZ054-064>069-076>088-106>120-040400-
SOUTHEAST KENTUCKY

CITY           SKY/WX    TMP DP  RH WIND       PRES   REMARKS
JACKSON        CLOUDY    54  47  77 W3        29.88S
LONDON         CLOUDY    56  47  71 W6        29.89S
SOMERSET       NOT AVBL
MIDDLESBORO    NOT AVBL
MONTICELLO     CLOUDY    56  50  80 W5        29.92S
$$





USA.gov is the U.S. government's official web portal to all federal, state and local government web resources and services.